This demonstration page uses our WeatherBlox Daily Observations layout. Learn more.

Left ArrowRight Arrow

53.62937, 11.41316

Hourly Observations for February 18, 2018

Temp ( °F °C ) Dew Point ( °F °C ) Humidity (%) Winds ( mph kmh ) Pressure ( in mb ) Visibility ( mi km ) Precip ( " mm )
6:50 am 06:50 Mostly Cloudy 30 -1 28 -2 93 93 E 2 4 30.36 1028 30 48 N/A
7:20 am 07:20 Mostly Cloudy 30 -1 27 -3 86 86 VRB 2 4 30.36 1028 30 48 N/A
7:50 am 07:50 Mostly Cloudy 32 0 27 -3 80 80 SSE 5 7 30.36 1028 30 48 N/A
8:20 am 08:20 Mostly Cloudy 32 0 27 -3 80 80 SSE 5 7 30.36 1028 30 48 N/A
8:50 am 08:50 Mostly Cloudy 34 1 27 -3 75 75 S 5 7 30.36 1028 30 48 N/A
9:20 am 09:20 Mostly Cloudy 36 2 27 -3 70 70 SSE 2 4 30.36 1028 30 48 N/A
9:50 am 09:50 Mostly Cloudy 36 2 27 -3 70 70 VRB 2 4 30.36 1028 30 48 N/A
10:20 am 10:20 Partly Cloudy 37 3 27 -3 65 65 SSE 3 6 30.36 1028 30 48 N/A
10:50 am 10:50 Mostly Sunny 39 4 27 -3 61 61 S 6 9 30.36 1028 30 48 N/A
11:20 am 11:20 Mostly Sunny 39 4 27 -3 61 61 SSE 6 9 30.36 1028 7 11 N/A
11:50 am 11:50 Mostly Sunny 41 5 27 -3 57 57 S 7 11 30.36 1028 30 48 N/A
12:20 pm 12:20 Mostly Sunny 41 5 25 -4 53 53 SSW 9 15 30.36 1028 30 48 N/A
12:50 pm 12:50 Mostly Sunny 41 5 27 -3 57 57 SW 13 20 30.36 1028 30 48 N/A
1:20 pm 13:20 Mostly Sunny 43 6 27 -3 53 53 SSW 10 17 30.33 1027 30 48 N/A
1:50 pm 13:50 Mostly Sunny 43 6 27 -3 53 53 SSW 10 17 30.33 1027 30 48 N/A
2:20 pm 14:20 Mostly Sunny 43 6 27 -3 53 53 SW 10 17 30.33 1027 30 48 N/A
2:50 pm 14:50 Mostly Sunny 43 6 27 -3 53 53 SW 10 17 30.33 1027 30 48 N/A
3:20 pm 15:20 Mostly Sunny 41 5 27 -3 57 57 SSW 8 13 30.30 1026 30 48 N/A
3:50 pm 15:50 Mostly Sunny 41 5 27 -3 57 57 SW 9 15 30.30 1026 7 11 N/A
4:20 pm 16:20 Mostly Sunny 41 5 27 -3 57 57 SW 6 9 30.30 1026 7 11 N/A
4:50 pm 16:50 Mostly Sunny 41 5 27 -3 57 57 SSW 2 4 30.30 1026 7 11 N/A
5:20 pm 17:20 Mostly Sunny 39 4 27 -3 61 61 SSW 2 4 30.30 1026 7 11 N/A
5:50 pm 17:50 Mostly Clear 39 4 27 -3 61 61 VRB 2 4 30.30 1026 7 11 N/A
6:20 pm 18:20 Mostly Clear 37 3 27 -3 65 65 S 2 4 30.30 1026 7 11 N/A

Powered by AerisWeather